Aérodrome :
LOGIN :

S'inscrire | Disclaimer

   EN    FR    IT 

 










Légende :    VFR   VFR Marginal   IFR   IFR Intensif   IFR Très Intensif
Visi : 
Plafond : 
>= 8 km
>= 3000ft
5 à 8 km
1000 à 3000 ft
1500m à 5 km
500 à 1000 ft
800 à 1500m
200 à 500 ft
< 800m
< 200 ft
Symboles :   Orages  Brouillard  Fortes neiges  Fortes précipitations  Vent > 20 kt
SIGMETs :   Divers  Orages  Givrage  Turbulence  Onde Orograph.  Cendres Volcan.







- Altitude de l'aérodrome : 453 ft
- Code IATA : SBK
- Voir les cartes d'approche


LFRT - St Brieuc Armor

DERNIER METAR :
  • 261830Z AUTO 27007KT 9999 OVC018 16/13 Q1016

METARs EXPIRÉS :
  • 261800Z AUTO 26006KT 9999 BKN019 BKN024 OVC030 16/13 Q1017
  • 261730Z AUTO 27007KT 9999 BKN017 BKN023 OVC028 16/13 Q1017
  • 261700Z AUTO 25006KT 210V280 9999 BKN014 BKN025 OVC040 17/14 Q1017
  • 261630Z AUTO 27008KT 9999 FEW012 BKN019 BKN024 16/14 Q1017
  • 261600Z AUTO 28009KT 9999 OVC022 17/13 Q1017

Prévision TAF périmée.
Pas de NOTAMs connus pour ce terrain.



MET'MAP, la Météo Aéronautique d'un coup d'oeil ! - Copyright ORBIFLY Décembre 2007 - Disclaimer

ORBIFLY MET'MAP TEAM :

Programmation & Développement : Alexandra Zaïnal
Conception & Développement : Baudouin d'Aumeries
Co-Programmation & Développement : Marc-Olivier Méhu
Soutien technique & logistique : Manuel Goepfert

Contact : metmap@orbifly.com




SOURCES & CREDITS :

   NOAA